Flag for U.S.A. Weather past 2 weeks in Los Angeles, California, U.S.A.

Now
58 °F

Sunny.


Feels Like: 58 °F
Forecast: 48 / 58 °F
Wind: No wind

Location: Los Angeles / USC Campus Downtown

Current Time: Mar 2, 2015 at 12:07:31 PM

Latest Report: Mar 2, 2015 at 11:47 AM


Visibility: 10 mi

Pressure: 29.91 "Hg

Humidity: 60%

Dew point: 44 °F

Location of Los AngelesLocation

Historic Weather in Los Angeles — Graph

°F

Los Angeles temperature yesterday

Maximum temperature yesterday: 62 °F (at 11:47 AM)
Minimum temperature yesterday: 50 °F (at 10:47 PM)
Average temperature yesterday: 55 °F

Past Weeks' High & Low Weather Summary

 TemperatureHumidityPressure
High78 °F (Feb 15, 12:47 PM)93% (Feb 19, 3:00 AM)30.23 "Hg (Feb 19, 3:00 AM)
Low46 °F (Feb 24, 4:47 AM)13% (Feb 24, 2:47 PM)29.74 "Hg (Feb 27, 11:47 PM)
Average60 °F69%29.97 "Hg
* Reported Feb 15 10:47 AM — Mar 2 10:47 AM, Los Angeles, Weather by CustomWeather, © 2015

Note: Actual official high and low records may vary slightly from our data, if they occured in-between our weather recording intervals... More about our weather records

Advertising

Los Angeles weather history for previous 24 hours

 ConditionsComfort  
Time TempWeatherWind HumidityBarometerVisibility
10:47 AM
Mon, Mar 2
57 °FScattered clouds.3 mph67%29.92 "Hg10 mi
9:47 AM54 °FMostly cloudy.No wind72%29.93 "Hg10 mi
8:47 AM54 °FSunny.3 mph74%29.93 "Hg10 mi
7:47 AM51 °FSunny.No wind86%29.92 "Hg10 mi
6:47 AM49 °FPartly sunny.No wind93%29.91 "Hg10 mi
5:47 AM49 °FClear.No wind90%29.90 "Hg10 mi
4:47 AM51 °FOvercast.No wind86%29.88 "Hg10 mi
3:47 AM50 °FOvercast.No wind93%29.88 "Hg10 mi
2:47 AM51 °FMostly cloudy.No wind86%29.89 "Hg10 mi
1:47 AM50 °FOvercast.No wind93%29.91 "Hg10 mi
12:47 AM50 °FLight rain. Overcast.6 mph89%29.93 "Hg7 mi
11:58 PM
Sun, Mar 1
50 °FHeavy rain. Fog.3 mph93%29.95 "Hg1 mi
11:47 PM50 °FRain. Fog.No wind93%29.95 "Hg2 mi
10:54 PM50 °FLight rain. Fog.5 mph89%29.94 "Hg4 mi
10:47 PM50 °FHeavy rain. Fog.5 mph93%29.94 "Hg2 mi
9:47 PM51 °FHeavy rain. Fog.No wind86%29.96 "Hg2 mi
9:04 PM54 °FMostly cloudy.5 mph83%29.94 "Hg10 mi
8:47 PM55 °FMostly cloudy.5 mph77%29.94 "Hg10 mi
7:47 PM55 °FOvercast.No wind77%29.93 "Hg10 mi
6:47 PM55 °FMostly cloudy.3 mph77%29.92 "Hg10 mi
5:47 PM57 °FMostly cloudy.No wind72%29.91 "Hg10 mi
4:47 PM57 °FMostly cloudy.3 mph69%29.89 "Hg10 mi
3:47 PM59 °FOvercast.6 mph67%29.88 "Hg10 mi
2:47 PM62 °FPassing clouds.6 mph54%29.88 "Hg10 mi
1:47 PM62 °FPassing clouds.8 mph58%29.88 "Hg10 mi
12:47 PM62 °FOvercast.7 mph56%29.90 "Hg10 mi
Weather by CustomWeather, © 2015

See weather overviewHow to use our weather pages